FW3157 Weather Reports


time (UTC)temp
C
wind
direction
speed
KPH
gust
KPH
rain 1hr
cm
rain 24hr
cm
rain mn
cm
humidity
%
barometer
mb
20260906185906 31 351 4.8 9.7 0.00 0.00 0.00 28 1019.3
20260906185401 31 25 4.8 11.3 0.00 0.00 0.00 28 1019.2
20260906184855 31 38 6.4 16.1 0.00 0.00 0.00 27 1019.2
20260906184607 31 15 8.0 16.1 0.00 0.00 0.00 27 1019.1
20260906183842 31 18 6.4 14.5 0.00 0.00 0.00 28 1019.1
20260906183336 31 295 8.0 14.5 0.00 0.00 0.00 28 1019.0
20260906182831 31 29 8.0 14.5 0.00 0.00 0.00 28 1019.0
20260906182324 31 13 4.8 11.3 0.00 0.00 0.00 28 1018.9
20260906181818 32 24 4.8 12.9 0.00 0.00 0.00 28 1018.7
20260906181312 32 32 4.8 12.9 0.00 0.00 0.00 28 1018.7
20260906180806 32 33 3.2 8.0 0.00 0.00 0.00 28 1018.6
20260906180528 32 89 3.2 9.7 0.00 0.00 0.00 28 1018.6
20260906180246 32 83 3.2 9.7 0.00 0.00 0.00 28 1018.4
20260906175511 32 86 3.2 6.4 0.00 0.00 0.00 28 1018.3
20260906174749 32 78 3.2 8.0 0.00 0.00 0.00 28 1018.2
20260906174247 32 318 3.2 8.0 0.00 0.00 0.00 28 1018.1
20260906173745 32 346 3.2 9.7 0.00 0.00 0.00 28 1018.0
20260906173511 32 25 3.2 12.9 0.00 0.00 0.00 28 1017.9
20260906172746 32 332 8.0 20.9 0.00 0.00 0.00 28 1017.8
20260906172245 32 27 9.7 20.9 0.00 0.00 0.00 27 1017.8
20260906171743 33 358 9.7 19.3 0.00 0.00 0.00 27 1017.6
20260906171243 33 50 11.3 20.9 0.00 0.00 0.00 28 1017.5
20260906170743 33 9 9.7 20.9 0.00 0.00 0.00 28 1017.4
20260906170240 33 6 8.0 16.1 0.00 0.00 0.00 28 1017.2
20260906165740 33 347 9.7 19.3 0.00 0.00 0.00 28 1017.2
20260906165240 33 29 9.7 20.9 0.00 0.00 0.00 28 1017.1
20260906164739 33 314 11.3 24.1 0.00 0.00 0.00 29 1017.1
20260906164239 33 285 12.9 24.1 0.00 0.00 0.00 29 1017.0
20260906163739 33 318 11.3 20.9 0.00 0.00 0.00 29 1016.9
20260906163238 33 304 9.7 19.3 0.00 0.00 0.00 29 1016.9
20260906162737 34 323 9.7 19.3 0.00 0.00 0.00 29 1016.7
20260906162500 34 322 11.3 19.3 0.00 0.00 0.00 29 1016.5
20260906161730 34 354 9.7 24.1 0.00 0.00 0.00 28 1016.5
20260906161225 34 318 9.7 24.1 0.00 0.00 0.00 29 1016.6
20260906160950 34 357 8.0 19.3 0.00 0.00 0.00 31 1016.5
20260906160713 34 316 8.0 14.5 0.00 0.00 0.00 32 1016.5
20260906155946 34 317 9.7 19.3 0.00 0.00 0.00 34 1016.5
20260906155222 34 316 12.9 20.9 0.00 0.00 0.00 34 1016.4
20260906154722 34 302 14.5 22.5 0.00 0.00 0.00 33 1016.4
20260906154223 35 310 14.5 25.7 0.00 0.00 0.00 32 1016.3
20260906153723 35 311 11.3 25.7 0.00 0.00 0.00 32 1016.4
20260906153224 35 300 9.7 17.7 0.00 0.00 0.00 32 1016.3
20260906152726 35 335 9.7 17.7 0.00 0.00 0.00 32 1016.3
20260906152224 35 304 8.0 17.7 0.00 0.00 0.00 33 1016.2
20260906151722 35 306 8.0 12.9 0.00 0.00 0.00 37 1016.2
20260906151223 35 274 8.0 16.1 0.00 0.00 0.00 36 1016.2
20260906150721 35 300 9.7 16.1 0.00 0.00 0.00 37 1016.2
20260906150219 35 306 9.7 17.7 0.00 0.00 0.00 36 1016.2
20260906145718 35 312 8.0 17.7 0.00 0.00 0.00 37 1016.3
20260906145219 35 328 8.0 16.1 0.00 0.00 0.00 36 1016.3
20260906144719 35 290 8.0 12.9 0.00 0.00 0.00 35 1016.3
20260906144438 35 277 8.0 14.5 0.00 0.00 0.00 32 1016.3
20260906143719 35 307 8.0 14.5 0.00 0.00 0.00 34 1016.3
20260906143219 35 284 8.0 14.5 0.00 0.00 0.00 34 1016.4
20260906142719 35 259 8.0 14.5 0.00 0.00 0.00 36 1016.3
20260906142218 35 281 9.7 16.1 0.00 0.00 0.00 34 1016.3
20260906141718 35 284 8.0 16.1 0.00 0.00 0.00 37 1016.4
20260906141219 35 300 8.0 14.5 0.00 0.00 0.00 35 1016.3
20260906140719 35 281 6.4 14.5 0.00 0.00 0.00 35 1016.3
20260906140217 35 285 8.0 14.5 0.00 0.00 0.00 32 1016.3
20260906135717 35 319 9.7 16.1 0.00 0.00 0.00 32 1016.3
20260906135217 35 277 9.7 16.1 0.00 0.00 0.00 30 1016.4
20260906134716 35 325 8.0 17.7 0.00 0.00 0.00 33 1016.4
20260906134441 35 297 8.0 17.7 0.00 0.00 0.00 31 1016.3
20260906133716 35 269 8.0 16.1 0.00 0.00 0.00 33 1016.4
20260906133440 35 256 8.0 16.1 0.00 0.00 0.00 33 1016.4
20260906132713 35 260 8.0 17.7 0.00 0.00 0.00 32 1016.4
20260906132211 35 309 9.7 17.7 0.00 0.00 0.00 32 1016.4
20260906131713 35 292 8.0 17.7 0.00 0.00 0.00 31 1016.4
20260906131210 35 272 6.4 12.9 0.00 0.00 0.00 36 1016.4
20260906130708 35 271 8.0 17.7 0.00 0.00 0.00 33 1016.5
20260906130208 35 285 9.7 17.7 0.00 0.00 0.00 31 1016.5
20260906125708 35 283 8.0 16.1 0.00 0.00 0.00 30 1016.5
20260906125206 35 264 6.4 17.7 0.00 0.00 0.00 31 1016.5
20260906124706 35 311 8.0 17.7 0.00 0.00 0.00 29 1016.6
20260906124438 35 302 8.0 16.1 0.00 0.00 0.00 30 1016.6
20260906123705 35 288 8.0 14.5 0.00 0.00 0.00 34 1016.6
20260906123204 35 276 8.0 16.1 0.00 0.00 0.00 35 1016.6
20260906122705 34 307 8.0 16.1 0.00 0.00 0.00 36 1016.6
20260906122202 35 280 8.0 17.7 0.00 0.00 0.00 34 1016.6
20260906121925 34 328 8.0 17.7 0.00 0.00 0.00 35 1016.7
20260906121425 34 288 8.0 17.7 0.00 0.00 0.00 35 1016.9
20260906120927 35 284 9.7 27.4 0.00 0.00 0.00 32 1016.9
20260906120157 34 276 9.7 27.4 0.00 0.00 0.00 31 1017.0
20260906115704 34 288 9.7 16.1 0.00 0.00 0.00 37 1017.0
20260906115145 34 321 8.0 17.7 0.00 0.00 0.00 34 1017.0
20260906114639 34 282 8.0 17.7 0.00 0.00 0.00 37 1017.1
20260906114133 34 262 8.0 17.7 0.00 0.00 0.00 36 1017.1
20260906113627 34 312 9.7 17.7 0.00 0.00 0.00 35 1017.1
20260906113122 34 322 9.7 19.3 0.00 0.00 0.00 35 1017.2
20260906112615 33 320 9.7 19.3 0.00 0.00 0.00 35 1017.2
20260906112109 33 316 9.7 17.7 0.00 0.00 0.00 36 1017.2
20260906111603 33 285 9.7 17.7 0.00 0.00 0.00 36 1017.2
20260906111101 34 285 9.7 17.7 0.00 0.00 0.00 34 1017.2
20260906110558 33 301 8.0 19.3 0.00 0.00 0.00 35 1017.3
20260906110058 33 309 8.0 19.3 0.00 0.00 0.00 36 1017.2
20260906105558 34 312 8.0 16.1 0.00 0.00 0.00 33 1017.3
20260906105545 33 294 9.7 16.1 0.00 0.00 0.00 34 1017.4
20260906104558 33 289 9.7 16.1 0.00 0.00 0.00 34 1017.3
20260906104058 33 307 8.0 16.1 0.00 0.00 0.00 34 1017.4
20260906103559 33 285 8.0 16.1 0.00 0.00 0.00 33 1017.4
20260906103058 33 298 8.0 16.1 0.00 0.00 0.00 35 1017.4
20260906102558 33 304 9.7 16.1 0.00 0.00 0.00 34 1017.5
20260906102100 33 304 8.0 16.1 0.00 0.00 0.00 36 1017.5
20260906101558 33 342 9.7 17.7 0.00 0.00 0.00 37 1017.5
20260906101058 33 290 9.7 17.7 0.00 0.00 0.00 35 1017.5
20260906100817 33 295 8.0 16.1 0.00 0.00 0.00 36 1017.6
20260906100058 33 276 8.0 16.1 0.00 0.00 0.00 36 1017.6
20260906095558 32 283 8.0 16.1 0.00 0.00 0.00 37 1017.6
20260906095058 32 285 9.7 16.1 0.00 0.00 0.00 36 1017.6
20260906094552 32 292 8.0 16.1 0.00 0.00 0.00 37 1017.7
20260906094310 32 303 9.7 16.1 0.00 0.00 0.00 36 1017.7
20260906093806 32 264 9.7 14.5 0.00 0.00 0.00 37 1017.7
20260906093034 32 284 9.7 14.5 0.00 0.00 0.00 37 1017.8
20260906092528 32 296 9.7 17.7 0.00 0.00 0.00 40 1017.8
20260906092245 32 276 9.7 17.7 0.00 0.00 0.00 37 1017.8
20260906091741 32 251 9.7 14.5 0.00 0.00 0.00 37 1017.8
20260906091010 32 300 9.7 19.3 0.00 0.00 0.00 36 1017.9
20260906090727 31 311 11.3 19.3 0.00 0.00 0.00 36 1017.9
20260906090222 31 356 11.3 17.7 0.00 0.00 0.00 36 1017.9
20260906085451 31 302 9.7 16.1 0.00 0.00 0.00 36 1017.9
20260906085209 31 296 11.3 17.7 0.00 0.00 0.00 38 1017.9
20260906084439 31 309 11.3 19.3 0.00 0.00 0.00 39 1017.9
20260906083933 31 304 11.3 19.3 0.00 0.00 0.00 38 1017.9
20260906083429 31 310 11.3 17.7 0.00 0.00 0.00 38 1017.9
20260906082928 31 295 11.3 19.3 0.00 0.00 0.00 39 1018.0
20260906082428 30 304 9.7 19.3 0.00 0.00 0.00 39 1018.0
20260906081929 30 333 9.7 16.1 0.00 0.00 0.00 38 1018.0
20260906081428 30 318 9.7 17.7 0.00 0.00 0.00 39 1018.0
20260906080928 30 335 9.7 20.9 0.00 0.00 0.00 39 1018.0
20260906080428 30 298 11.3 20.9 0.00 0.00 0.00 39 1018.0
20260906075928 30 313 11.3 20.9 0.00 0.00 0.00 39 1017.9
20260906075905 30 297 11.3 20.9 0.00 0.00 0.00 40 1018.0
20260906074928 30 304 11.3 20.9 0.00 0.00 0.00 40 1018.0
20260906074428 30 319 11.3 22.5 0.00 0.00 0.00 40 1018.0
20260906074151 29 314 9.7 22.5 0.00 0.00 0.00 40 1017.9
20260906073644 29 340 8.0 19.3 0.00 0.00 0.00 40 1017.9
20260906072927 29 297 9.7 20.9 0.00 0.00 0.00 40 1017.8
20260906072427 29 321 9.7 20.9 0.00 0.00 0.00 41 1017.8
20260906071928 28 304 8.0 17.7 0.00 0.00 0.00 41 1017.8
20260906071429 28 293 8.0 17.7 0.00 0.00 0.00 42 1017.8
20260906070922 28 310 6.4 14.5 0.00 0.00 0.00 45 1017.8
20260906070415 28 304 6.4 12.9 0.00 0.00 0.00 49 1017.7
20260906065916 27 309 6.4 11.3 0.00 0.00 0.00 50 1017.6
20260906065416 26 305 6.4 11.3 0.00 0.00 0.00 54 1017.6
20260906064916 26 298 4.8 9.7 0.00 0.00 0.00 58 1017.6
20260906064416 25 320 3.2 8.0 0.00 0.00 0.00 61 1017.6
20260906063915 25 309 4.8 8.0 0.00 0.00 0.00 64 1017.6
20260906063416 24 275 6.4 12.9 0.00 0.00 0.00 67 1017.6
20260906062916 24 279 8.0 12.9 0.00 0.00 0.00 67 1017.5
20260906062413 24 276 6.4 12.9 0.00 0.00 0.00 66 1017.5
20260906061914 23 266 6.4 11.3 0.00 0.00 0.00 67 1017.4
20260906061414 23 300 6.4 12.9 0.00 0.00 0.00 67 1017.4
20260906061138 23 295 4.8 12.9 0.00 0.00 0.00 68 1017.3
20260906060414 23 300 4.8 9.7 0.00 0.00 0.00 66 1017.4
20260906060131 23 266 4.8 9.7 0.00 0.00 0.00 65 1017.3
20260906055641 24 297 4.8 9.7 0.00 0.00 0.00 63 1017.3
20260906054911 23 293 3.2 8.0 0.00 0.00 0.00 63 1017.4
20260906054638 23 277 3.2 4.8 0.00 0.00 0.00 62 1017.4
20260906053912 23 307 3.2 4.8 0.00 0.00 0.00 63 1017.3
20260906053640 23 294 3.2 4.8 0.00 0.00 0.00 63 1017.4
20260906052909 23 356 3.2 4.8 0.00 0.00 0.00 65 1017.3
20260906052632 23 304 1.6 4.8 0.00 0.00 0.00 67 1017.3
20260906051910 23 342 1.6 4.8 0.00 0.00 0.00 69 1017.3
20260906051636 22 302 3.2 6.4 0.00 0.00 0.00 71 1017.3
20260906050909 22 261 1.6 6.4 0.00 0.00 0.00 72 1017.2
20260906050410 22 274 3.2 6.4 0.00 0.00 0.00 74 1017.2
20260906045906 22 281 3.2 6.4 0.00 0.00 0.00 75 1017.1
20260906045406 22 277 4.8 11.3 0.00 0.00 0.00 76 1017.1
20260906044906 22 255 6.4 12.9 0.00 0.00 0.00 76 1017.1
20260906044406 22 276 6.4 12.9 0.00 0.00 0.00 73 1016.9
20260906043905 23 240 3.2 11.3 0.00 0.00 0.00 70 1016.9
20260906043405 23 277 1.6 11.3 0.00 0.00 0.00 70 1016.9
20260906042906 23 124 1.6 1.6 0.00 0.00 0.00 68 1016.5
20260906042405 23 124 0.0 1.6 0.00 0.00 0.00 70 1016.4
20260906041905 22 257 0.0 1.6 0.00 0.00 0.00 70 1016.4
20260906041400 22 257 0.0 1.6 0.00 0.00 0.00 70 1016.3
20260906040853 22 257 0.0 3.2 0.00 0.00 0.00 70 1016.4
20260906040347 22 257 0.0 3.2 0.00 0.00 0.00 70 1016.3
20260906035840 22 257 1.6 3.2 0.00 0.00 0.00 70 1016.2
20260906035335 23 257 1.6 3.2 0.00 0.00 0.00 70 1016.2
20260906034829 23 271 1.6 4.8 0.00 0.00 0.00 69 1016.2
20260906034323 23 271 3.2 4.8 0.00 0.00 0.00 69 1016.2
20260906034044 23 276 3.2 6.4 0.00 0.00 0.00 69 1016.1
20260906033311 23 269 1.6 6.4 0.00 0.00 0.00 69 1016.1
20260906032805 23 266 0.0 4.8 0.00 0.00 0.00 69 1016.1
20260906032502 23 212 0.0 3.2 0.00 0.00 0.00 66 1016.0
20260906032349 23 212 0.0 1.6 0.00 0.00 0.00 67 1016.1
20260906031247 23 212 0.0 3.2 0.00 0.00 0.00 66 1016.0
20260906030741 23 228 1.6 3.2 0.00 0.00 0.00 68 1016.0
20260906030235 23 228 1.6 4.8 0.00 0.00 0.00 67 1015.9
20260906025729 23 265 0.0 4.8 0.00 0.00 0.00 64 1015.9
20260906025223 23 347 0.0 1.6 0.00 0.00 0.00 57 1015.8
20260906024716 23 349 0.0 0.0 0.00 0.00 0.00 56 1015.8
20260906024211 23 349 0.0 0.0 0.00 0.00 0.00 56 1015.8
20260906023705 23 349 0.0 0.0 0.00 0.00 0.00 54 1015.8
20260906023159 23 349 0.0 0.0 0.00 0.00 0.00 53 1015.7
20260906022653 23 349 0.0 0.0 0.00 0.00 0.00 53 1015.7
20260906022146 23 349 0.0 1.6 0.00 0.00 0.00 52 1015.7
20260906021641 23 349 0.0 1.6 0.00 0.00 0.00 52 1015.6
20260906021135 24 349 0.0 1.6 0.00 0.00 0.00 52 1015.7
20260906020629 24 349 0.0 1.6 0.00 0.00 0.00 51 1015.6
20260906020122 24 349 1.6 1.6 0.00 0.00 0.00 50 1015.7
20260906015616 24 347 1.6 1.6 0.00 0.00 0.00 50 1015.6
20260906015111 24 334 0.0 1.6 0.00 0.00 0.00 50 1015.6
20260906014605 24 334 0.0 1.6 0.00 0.00 0.00 49 1015.7
20260906014059 24 334 0.0 1.6 0.00 0.00 0.00 49 1015.7
20260906013552 24 334 0.0 1.6 0.00 0.00 0.00 49 1015.8
20260906013309 24 334 0.0 1.6 0.00 0.00 0.00 48 1015.8
20260906012540 24 334 0.0 1.6 0.00 0.00 0.00 48 1015.7
20260906012035 24 334 0.0 1.6 0.00 0.00 0.00 48 1015.7
20260906011529 24 334 0.0 3.2 0.00 0.00 0.00 47 1015.7
20260906011023 24 334 1.6 3.2 0.00 0.00 0.00 47 1015.7
20260906010739 24 334 1.6 3.2 0.00 0.00 0.00 50 1015.7
20260906010011 24 85 0.0 1.6 0.00 0.00 0.00 50 1015.7
20260906005504 24 85 0.0 1.6 0.00 0.00 0.00 51 1015.7
20260906004958 24 85 0.0 1.6 0.00 0.00 0.00 51 1015.7
20260906004452 24 85 0.0 1.6 0.00 0.00 0.00 50 1015.7
20260906003947 24 85 0.0 1.6 0.00 0.00 0.00 50 1015.6
20260906003441 24 85 0.0 3.2 0.00 0.00 0.00 49 1015.7
20260906002934 24 85 0.0 3.2 0.00 0.00 0.00 49 1015.7
20260906002429 24 86 0.0 0.0 0.00 0.00 0.00 48 1015.6
20260906001923 24 85 0.0 3.2 0.00 0.00 0.00 48 1015.7
20260906001416 25 85 1.6 3.2 0.00 0.00 0.00 48 1015.7
20260906000910 25 86 1.6 4.8 0.00 0.00 0.00 47 1015.7
20260906000407 25 7 1.6 4.8 0.00 0.00 0.00 46 1015.7
20260905235859 25 352 0.0 1.6 0.00 0.00 0.00 46 1015.6
20260905235353 25 352 0.0 1.6 0.00 0.00 0.00 47 1015.6
20260905234847 25 352 0.0 1.6 0.00 0.00 0.00 47 1015.6
20260905234342 25 352 0.0 1.6 0.00 0.00 0.00 47 1015.6
20260905233834 25 352 0.0 1.6 0.00 0.00 0.00 47 1015.8
20260905233328 25 352 0.0 1.6 0.00 0.00 0.00 46 1015.9
20260905232829 25 350 1.6 4.8 0.00 0.00 0.00 47 1015.8
20260905232329 25 352 1.6 4.8 0.00 0.00 0.00 46 1015.9
20260905231829 26 302 1.6 4.8 0.00 0.00 0.00 45 1015.9
20260905231327 26 98 1.6 3.2 0.00 0.00 0.00 44 1015.8
20260905230825 26 98 3.2 4.8 0.00 0.00 0.00 43 1015.7
20260905230323 26 98 3.2 6.4 0.00 0.00 0.00 43 1015.8
20260905225821 26 92 3.2 6.4 0.00 0.00 0.00 43 1015.8
20260905225319 26 100 1.6 4.8 0.00 0.00 0.00 43 1015.9
20260905224817 26 101 3.2 4.8 0.00 0.00 0.00 43 1015.9
20260905224316 26 98 3.2 4.8 0.00 0.00 0.00 43 1015.9
20260905223813 26 101 1.6 3.2 0.00 0.00 0.00 44 1016.0
20260905223312 26 101 0.0 1.6 0.00 0.00 0.00 45 1016.0
20260905222813 26 101 0.0 1.6 0.00 0.00 0.00 45 1016.0
20260905222312 26 101 0.0 3.2 0.00 0.00 0.00 45 1016.0
20260905222126 26 101 0.0 3.2 0.00 0.00 0.00 45 1016.0
20260905222027 26 101 0.0 1.6 0.00 0.00 0.00 44 1015.9
20260905220813 26 101 0.0 4.8 0.00 0.00 0.00 43 1015.8
20260905220311 26 101 1.6 4.8 0.00 0.00 0.00 42 1015.8
20260905215809 26 123 1.6 4.8 0.00 0.00 0.00 43 1015.8
20260905215310 26 73 1.6 3.2 0.00 0.00 0.00 44 1015.8
20260905214804 26 74 1.6 3.2 0.00 0.00 0.00 44 1015.9
20260905214301 26 74 1.6 3.2 0.00 0.00 0.00 44 1016.0
20260905213801 26 73 1.6 4.8 0.00 0.00 0.00 44 1016.0
20260905213301 26 70 1.6 6.4 0.00 0.00 0.00 44 1016.1
20260905212758 27 101 1.6 6.4 0.00 0.00 0.00 42 1016.1
20260905212259 27 113 4.8 8.0 0.00 0.00 0.00 41 1016.2
20260905212235 27 101 6.4 8.0 0.00 0.00 0.00 40 1016.1
20260905211259 27 99 4.8 8.0 0.00 0.00 0.00 41 1016.1
20260905210759 27 103 3.2 6.4 0.00 0.00 0.00 42 1016.1
20260905210257 27 98 3.2 4.8 0.00 0.00 0.00 41 1016.2
20260905205756 27 113 1.6 3.2 0.00 0.00 0.00 43 1016.2
20260905205513 27 113 1.6 3.2 0.00 0.00 0.00 43 1016.3
20260905204755 27 113 1.6 1.6 0.00 0.00 0.00 44 1016.2
20260905204254 27 113 0.0 1.6 0.00 0.00 0.00 44 1016.3
20260905203755 27 113 0.0 3.2 0.00 0.00 0.00 43 1016.3
20260905203253 27 113 1.6 4.8 0.00 0.00 0.00 41 1016.3
20260905202753 27 113 3.2 8.0 0.00 0.00 0.00 41 1016.3
20260905202253 27 115 4.8 8.0 0.00 0.00 0.00 40 1016.2
20260905202018 27 96 4.8 8.0 0.00 0.00 0.00 40 1016.2
20260905201504 27 113 4.8 9.7 0.00 0.00 0.00 41 1016.2
20260905200740 27 111 6.4 9.7 0.00 0.00 0.00 42 1016.2
20260905200453 27 113 6.4 11.3 0.00 0.00 0.00 42 1016.2
20260905200211 27 115 8.0 12.9 0.00 0.00 0.00 42 1016.2
20260905195223 27 94 6.4 12.9 0.00 0.00 0.00 43 1016.2
20260905194717 27 114 4.8 12.9 0.00 0.00 0.00 43 1016.2
20260905194211 27 113 3.2 8.0 0.00 0.00 0.00 44 1016.2
20260905193704 27 109 4.8 9.7 0.00 0.00 0.00 44 1016.2
20260905193159 27 91 4.8 11.3 0.00 0.00 0.00 44 1016.2
20260905192659 27 107 6.4 11.3 0.00 0.00 0.00 44 1016.3
20260905192159 27 98 6.4 11.3 0.00 0.00 0.00 44 1016.3
20260905191658 27 117 6.4 9.7 0.00 0.00 0.00 44 1016.3
20260905191427 27 113 6.4 9.7 0.00 0.00 0.00 44 1016.3
20260905190659 27 95 4.8 8.0 0.00 0.00 0.00 44 1016.3